Content
SEND FEEDBACK

Daily
Averages
Monthly
Summary
United States of America

PUT IN BAY, OHIO


Home > North America > United States > Ohio
Elevation: 171 meters     Latitude: 41 39N     Longitude: 082 48W

WEATHER
 
SELECT A DAY
Number of Records: 124,898;   Date Range: 12/10/00 - 10/23/14
 
SHARE

PRINT THIS DATA

[ ← Previous Day ]
WEATHER ALMANAC - 17 JANUARY, 2014
[ Next Day → ]
[ °F ]   °C
Weather ElementAverageHighLow
Temperature-3.4 °C-0.4 °C (2:00 pm)-8.3 °C (11:00 pm)
Dewpoint-5.9 °C-2.7 °C (2:00 am)-10.4 °C (11:00 pm)
Humidity81.9 %95 % (6:00 pm)62 % (1:00 pm)
Barometer1008.8 hPa1014.2 hPa (11:00 pm)1004.7 hPa (1:00 am)
Wind Speed17.1 km/h33.3 km/h (10:00 pm)
Wind Gust42.6 km/h (10:00 pm)
Weather ElementAverage
Wind DirectionWSW (243.7 °)

Weather ElementTotal
Precipitation0.51 mm
Heating Degree Days22.7 (Base 18.3)
Averaged from 27 records on 17 January, 2014
WEATHER CONDITIONS BREAKOUT
WIND DIRECTION BREAKOUT
WEATHER BY HOUR - 17 JANUARY, 2014
[ °F ]   °C
Local TimeTemperatureDewpointHumidityBarometerVisibilityWind DirectionWind SpeedGust SpeedPrecipitationEventsConditions
1:00 AM-2.2 °C-3.3 °C91 %1004.7 hPaSSW (200°)20.4 km/h
1:00 AM-2.3 °C-3.1 °C94 %1004.7 hPaSSW (200°)20.4 km/h29.6 km/h
2:00 AM-1.7 °C-2.7 °C93 %1004.7 hPaSSW (210°)20.4 km/h31.5 km/h
3:00 AM-1.2 °C-3.2 °C86 %1005.1 hPaSW (220°)22.2 km/h35.2 km/h0.25 mm
4:00 AM-1.9 °C-4.3 °C84 %1005.4 hPaSW (220°)22.2 km/h33.3 km/h
5:00 AM-2.7 °C-5.8 °C80 %1005.8 hPaWSW (250°)25.9 km/h38.9 km/h
6:00 AM-3.8 °C-6.8 °C80 %1007.1 hPaSW (230°)22.2 km/h33.3 km/h
7:00 AM-5 °C-7.8 °C73 %1008.1 hPaWSW (240°)18.5 km/h
7:00 AM-5 °C-7.8 °C81 %1008.1 hPaWSW (240°)18.5 km/h
8:00 AM-5.4 °C-8.7 °C78 %1008.5 hPaWSW (240°)16.7 km/h
9:00 AM-4.7 °C-8 °C78 %1009.1 hPaWSW (250°)11.1 km/h
10:00 AM-3.6 °C-7.6 °C74 %1009.5 hPaSW (230°)11.1 km/h
11:00 AM-3.4 °C-6.8 °C78 %1009.8 hPaWSW (240°)9.3 km/h
12:00 PM-3 °C-6.4 °C78 %1009.5 hPaWSW (250°)5.6 km/h
1:00 PM-1.7 °C-6.1 °C62 %1008.8 hPaWest (260°)3.7 km/h
1:00 PM-1.9 °C-6.1 °C73 %1008.8 hPaWest (260°)3.7 km/h
2:00 PM-0.4 °C-4.6 °C74 %1008.1 hPaWest (280°)1.9 km/h
3:00 PM-1 °C-4.1 °C80 %1008.5 hPaWSW (240°)7.4 km/h
4:00 PM-1.6 °C-5.3 °C76 %1009.1 hPaWest (270°)9.3 km/h
5:00 PM-2.1 °C-5.2 °C80 %1009.5 hPaWest (280°)9.3 km/h
6:00 PM-2.8 °C-3.5 °C95 %1010.5 hPaWest (260°)20.4 km/h
7:00 PM-3.3 °C-4.4 °C86 %1011.9 hPaWSW (250°)22.2 km/h
7:00 PM-2.5 °C-4.7 °C85 %1011.9 hPaWSW (250°)22.2 km/h
8:00 PM-4.9 °C-6.3 °C90 %1012.5 hPaWSW (250°)25.9 km/h35.2 km/h
9:00 PM-6.7 °C-8 °C91 %1012.9 hPaWSW (250°)27.8 km/h37 km/h0.25 mm
10:00 PM-7.8 °C-9.6 °C87 %1013.5 hPaWSW (250°)33.3 km/h42.6 km/h
11:00 PM-8.3 °C-10.4 °C85 %1014.2 hPaWest (260°)27.8 km/h38.9 km/h
Hourly data recorded from CXHA, located 0 kilometers away from Put In Bay, Ohio







STORIES FROM OUR PARTNERS